BTK6344 WIII-WAHI

Flight info

Callsign BTK6344
Flight time 0h 50m
Altitude 35000
Route PW W17 CLP
Aircraft A320/M-SDE3FGHIRWY/LB1

Departure

Time 2026-04-30 11:49
Airport Soekarno-Hatta International Airport (WIII)

Arrival

Time 2026-04-30 12:40
Airport Yogyakarta International Airport (WAHI)
Time Latitude Longitude Altitude Speed Heading
2026-04-30 11:23 -6.12044 106.65089 26 ft 0 kts 130°
2026-04-30 11:39 -6.12042 106.65087 38 ft 2 kts 129°
2026-04-30 11:39 -6.12030 106.65072 37 ft 3 kts 119°
2026-04-30 11:40 -6.12022 106.65054 36 ft 3 kts 102°
2026-04-30 11:40 -6.12020 106.65035 36 ft 3 kts 74°
2026-04-30 11:40 -6.12028 106.65020 35 ft 3 kts 32°
2026-04-30 11:40 -6.12037 106.65015 37 ft 0 kts 10°
2026-04-30 11:42 -6.12029 106.65017 35 ft 4 kts 10°
2026-04-30 11:43 -6.12006 106.65021 36 ft 3 kts 10°
2026-04-30 11:43 -6.11968 106.65026 39 ft 14 kts
2026-04-30 11:43 -6.11872 106.64978 39 ft 17 kts 287°
2026-04-30 11:43 -6.11911 106.64847 39 ft 24 kts 248°
2026-04-30 11:44 -6.11965 106.64713 39 ft 20 kts 247°
2026-04-30 11:44 -6.12019 106.64578 37 ft 22 kts 248°
2026-04-30 11:44 -6.12059 106.64476 37 ft 14 kts 248°
2026-04-30 11:44 -6.12094 106.64389 39 ft 13 kts 249°
2026-04-30 11:45 -6.12126 106.64309 39 ft 11 kts 248°
2026-04-30 11:45 -6.12153 106.64242 39 ft 10 kts 248°
2026-04-30 11:45 -6.12176 106.64183 37 ft 8 kts 248°
2026-04-30 11:45 -6.12196 106.64132 39 ft 7 kts 248°
2026-04-30 11:46 -6.12213 106.64089 39 ft 6 kts 248°
2026-04-30 11:46 -6.12228 106.64053 39 ft 5 kts 248°
2026-04-30 11:46 -6.12243 106.64016 39 ft 8 kts 248°
2026-04-30 11:46 -6.12263 106.63947 40 ft 11 kts 273°
2026-04-30 11:47 -6.12221 106.63898 41 ft 9 kts 338°
2026-04-30 11:47 -6.12211 106.63894 41 ft 0 kts 341°
2026-04-30 11:48 -6.12196 106.63890 41 ft 5 kts 351°
2026-04-30 11:48 -6.12106 106.63910 41 ft 11 kts 16°
2026-04-30 11:48 -6.12067 106.63968 41 ft 7 kts 69°
2026-04-30 11:48 -6.12064 106.63976 41 ft 0 kts 68°
2026-04-30 11:49 -6.12029 106.64065 38 ft 48 kts 70°
2026-04-30 11:49 -6.11812 106.64610 41 ft 117 kts 68°
2026-04-30 11:49 -6.11450 106.65542 62 ft 164 kts 72°
2026-04-30 11:49 -6.11054 106.66491 979 ft 135 kts 62°
2026-04-30 11:50 -6.10474 106.67258 1469 ft 143 kts 50°
2026-04-30 11:50 -6.09810 106.68003 1873 ft 148 kts 49°
2026-04-30 11:50 -6.09080 106.68816 2207 ft 164 kts 49°
2026-04-30 11:50 -6.08275 106.69709 2592 ft 181 kts 49°
2026-04-30 11:51 -6.07392 106.70686 2982 ft 197 kts 49°
2026-04-30 11:51 -6.06107 106.72104 3486 ft 219 kts 49°
2026-04-30 11:51 -6.05032 106.73286 3864 ft 238 kts 49°
2026-04-30 11:51 -6.04274 106.74120 4191 ft 250 kts 48°
2026-04-30 11:52 -6.03066 106.75445 4730 ft 266 kts 48°
2026-04-30 11:52 -6.01792 106.76841 5467 ft 273 kts 47°
2026-04-30 11:52 -6.00497 106.78259 6285 ft 277 kts 47°
2026-04-30 11:52 -5.99188 106.79694 7060 ft 280 kts 49°
2026-04-30 11:53 -5.98156 106.81344 7851 ft 281 kts 73°
2026-04-30 11:53 -5.97989 106.83281 8658 ft 283 kts 100°
2026-04-30 11:53 -5.98571 106.85181 9411 ft 287 kts 109°
2026-04-30 11:53 -5.99227 106.87052 10116 ft 291 kts 109°
2026-04-30 11:54 -5.99917 106.89029 10537 ft 307 kts 109°
2026-04-30 11:54 -6.00636 106.91104 10890 ft 324 kts 109°
2026-04-30 11:54 -6.01390 106.93298 11214 ft 340 kts 109°
2026-04-30 11:54 -6.02171 106.95581 11707 ft 349 kts 109°
2026-04-30 11:55 -6.02961 106.97895 12358 ft 352 kts 109°
2026-04-30 11:55 -6.03758 107.00227 13029 ft 355 kts 109°
2026-04-30 11:55 -6.04562 107.02584 13691 ft 358 kts 109°
2026-04-30 11:55 -6.05655 107.04829 14265 ft 361 kts 125°
2026-04-30 11:56 -6.07422 107.06620 14835 ft 365 kts 144°
2026-04-30 11:56 -6.09635 107.07917 15370 ft 370 kts 150°
2026-04-30 11:56 -6.11874 107.09147 15871 ft 374 kts 150°
2026-04-30 11:56 -6.14169 107.10401 16404 ft 377 kts 150°
2026-04-30 11:57 -6.16486 107.11669 16934 ft 380 kts 150°
2026-04-30 11:57 -6.18817 107.12946 17465 ft 383 kts 150°
2026-04-30 11:57 -6.21168 107.14237 17967 ft 387 kts 150°
2026-04-30 11:57 -6.23537 107.15541 18453 ft 390 kts 150°
2026-04-30 11:58 -6.25920 107.16855 18903 ft 393 kts 150°
2026-04-30 11:58 -6.28326 107.18180 19369 ft 396 kts 150°
2026-04-30 11:58 -6.30719 107.19497 19815 ft 398 kts 150°
2026-04-30 11:58 -6.33158 107.20841 20274 ft 401 kts 150°
2026-04-30 11:59 -6.35610 107.22190 20730 ft 404 kts 150°
2026-04-30 11:59 -6.38088 107.23556 21183 ft 407 kts 150°
2026-04-30 11:59 -6.40576 107.24931 21635 ft 410 kts 149°
2026-04-30 11:59 -6.43080 107.26318 22075 ft 412 kts 149°
2026-04-30 12:00 -6.45602 107.27713 22500 ft 415 kts 149°
2026-04-30 12:00 -6.48139 107.29114 22920 ft 418 kts 150°
2026-04-30 12:00 -6.50701 107.30526 23327 ft 421 kts 150°
2026-04-30 12:00 -6.53243 107.31926 23680 ft 423 kts 150°
2026-04-30 12:01 -6.55827 107.33351 24005 ft 426 kts 149°
2026-04-30 12:01 -6.58428 107.34787 24327 ft 428 kts 150°
2026-04-30 12:01 -6.61052 107.36236 24655 ft 430 kts 150°
2026-04-30 12:01 -6.63680 107.37685 24969 ft 432 kts 150°
2026-04-30 12:02 -6.66323 107.39140 25277 ft 434 kts 150°
2026-04-30 12:02 -6.68978 107.40604 25579 ft 436 kts 150°
2026-04-30 12:02 -6.71644 107.42077 25874 ft 438 kts 150°
2026-04-30 12:02 -6.74323 107.43557 26160 ft 440 kts 150°
2026-04-30 12:03 -6.77013 107.45045 26436 ft 442 kts 150°
2026-04-30 12:03 -6.82419 107.48039 26999 ft 446 kts 150°
2026-04-30 12:03 -6.85056 107.49622 27267 ft 447 kts 143°
2026-04-30 12:04 -6.87426 107.51632 27533 ft 447 kts 133°
2026-04-30 12:04 -6.89416 107.54026 27797 ft 447 kts 123°
2026-04-30 12:04 -6.90979 107.56734 28044 ft 448 kts 116°
2026-04-30 12:04 -6.92376 107.59542 28276 ft 450 kts 116°
2026-04-30 12:05 -6.93787 107.62360 28510 ft 452 kts 116°
2026-04-30 12:05 -6.95210 107.65184 28756 ft 454 kts 116°
2026-04-30 12:05 -6.96645 107.68023 28977 ft 455 kts 116°
2026-04-30 12:05 -6.98082 107.70872 29198 ft 457 kts 116°
2026-04-30 12:06 -6.99523 107.73727 29412 ft 459 kts 116°
2026-04-30 12:06 -7.00967 107.76600 29616 ft 460 kts 116°
2026-04-30 12:06 -7.02408 107.79475 29821 ft 462 kts 116°
2026-04-30 12:06 -7.03840 107.82329 30009 ft 463 kts 116°
2026-04-30 12:07 -7.05297 107.85227 30185 ft 465 kts 116°
2026-04-30 12:07 -7.06756 107.88129 30341 ft 466 kts 116°
2026-04-30 12:07 -7.08222 107.91046 30503 ft 467 kts 116°
2026-04-30 12:07 -7.09685 107.93966 30649 ft 468 kts 116°
2026-04-30 12:08 -7.11149 107.96890 30838 ft 467 kts 116°
2026-04-30 12:08 -7.12609 107.99810 31060 ft 466 kts 116°
2026-04-30 12:08 -7.14067 108.02720 31279 ft 465 kts 116°
2026-04-30 12:08 -7.15524 108.05632 31492 ft 465 kts 116°
2026-04-30 12:09 -7.16981 108.08537 31705 ft 464 kts 116°
2026-04-30 12:09 -7.18439 108.11434 31928 ft 464 kts 116°
2026-04-30 12:09 -7.19894 108.14327 32153 ft 463 kts 116°
2026-04-30 12:09 -7.21345 108.17214 32383 ft 462 kts 116°
2026-04-30 12:10 -7.22774 108.20061 32608 ft 461 kts 116°
2026-04-30 12:10 -7.24220 108.22946 32839 ft 461 kts 116°
2026-04-30 12:10 -7.25659 108.25831 33054 ft 460 kts 116°
2026-04-30 12:10 -7.27094 108.28711 33279 ft 460 kts 116°
2026-04-30 12:11 -7.28530 108.31590 33517 ft 460 kts 116°
2026-04-30 12:11 -7.29964 108.34461 33732 ft 459 kts 116°
2026-04-30 12:11 -7.31403 108.37335 33964 ft 459 kts 116°
2026-04-30 12:11 -7.32836 108.40196 34161 ft 458 kts 116°
2026-04-30 12:12 -7.34272 108.43063 34364 ft 458 kts 116°
2026-04-30 12:12 -7.35708 108.45930 34561 ft 457 kts 116°
2026-04-30 12:12 -7.37139 108.48788 34750 ft 457 kts 116°
2026-04-30 12:12 -7.38550 108.51610 34905 ft 457 kts 116°
2026-04-30 12:13 -7.39973 108.54461 34961 ft 456 kts 116°
2026-04-30 12:13 -7.42816 108.60159 34959 ft 455 kts 116°
2026-04-30 12:14 -7.45666 108.65862 34955 ft 456 kts 116°
2026-04-30 12:14 -7.48514 108.71567 34953 ft 456 kts 116°
2026-04-30 12:15 -7.51361 108.77282 34952 ft 456 kts 116°
2026-04-30 12:15 -7.54194 108.82961 34947 ft 457 kts 116°
2026-04-30 12:16 -7.57053 108.88688 34941 ft 457 kts 116°
2026-04-30 12:16 -7.59907 108.94410 34943 ft 457 kts 116°
2026-04-30 12:17 -7.64016 109.03080 34938 ft 457 kts 107°
2026-04-30 12:17 -7.65181 109.09325 34857 ft 457 kts 96°
2026-04-30 12:18 -7.65568 109.12498 33722 ft 457 kts 97°
2026-04-30 12:18 -7.65970 109.15723 31803 ft 468 kts 97°
2026-04-30 12:18 -7.66385 109.19000 30275 ft 476 kts 97°
2026-04-30 12:18 -7.66804 109.22308 29429 ft 473 kts 97°
2026-04-30 12:19 -7.67214 109.25565 28765 ft 464 kts 97°
2026-04-30 12:19 -7.67613 109.28775 28095 ft 458 kts 97°
2026-04-30 12:19 -7.68005 109.31937 27429 ft 451 kts 97°
2026-04-30 12:19 -7.68392 109.35056 26778 ft 446 kts 97°
2026-04-30 12:20 -7.68775 109.38137 26126 ft 441 kts 97°
2026-04-30 12:20 -7.69157 109.41195 25503 ft 437 kts 97°
2026-04-30 12:20 -7.69532 109.44218 24879 ft 433 kts 97°
2026-04-30 12:20 -7.69902 109.47217 24273 ft 429 kts 97°
2026-04-30 12:21 -7.70267 109.50149 23687 ft 425 kts 97°
2026-04-30 12:21 -7.70632 109.53088 23067 ft 421 kts 97°
2026-04-30 12:21 -7.70996 109.55996 22507 ft 415 kts 97°
2026-04-30 12:21 -7.71352 109.58855 22005 ft 408 kts 97°
2026-04-30 12:22 -7.71699 109.61683 21505 ft 403 kts 97°
2026-04-30 12:22 -7.72040 109.64470 21023 ft 398 kts 97°
2026-04-30 12:22 -7.72377 109.67226 20528 ft 395 kts 97°
2026-04-30 12:22 -7.72713 109.69960 20030 ft 391 kts 97°
2026-04-30 12:23 -7.73049 109.72670 19530 ft 388 kts 97°
2026-04-30 12:23 -7.73379 109.75324 19029 ft 386 kts 97°
2026-04-30 12:23 -7.73710 109.78002 18511 ft 384 kts 97°
2026-04-30 12:23 -7.74040 109.80670 17955 ft 382 kts 97°
2026-04-30 12:24 -7.74368 109.83320 17408 ft 380 kts 97°
2026-04-30 12:24 -7.74691 109.85950 16879 ft 376 kts 97°
2026-04-30 12:24 -7.75010 109.88553 16366 ft 374 kts 97°
2026-04-30 12:24 -7.75463 109.91120 15839 ft 371 kts 109°
2026-04-30 12:25 -7.76685 109.93376 15340 ft 368 kts 130°
2026-04-30 12:25 -7.78605 109.95003 14839 ft 367 kts 151°
2026-04-30 12:25 -7.80983 109.95810 14673 ft 359 kts 171°
2026-04-30 12:25 -7.83478 109.95750 14485 ft 361 kts 191°
2026-04-30 12:26 -7.85912 109.95131 14290 ft 361 kts 193°
2026-04-30 12:26 -7.88328 109.94484 14096 ft 359 kts 193°
2026-04-30 12:26 -7.90738 109.93833 13893 ft 358 kts 193°
2026-04-30 12:26 -7.93143 109.93185 13703 ft 357 kts 193°
2026-04-30 12:27 -7.95537 109.92543 13490 ft 355 kts 193°
2026-04-30 12:27 -7.97890 109.91914 13303 ft 355 kts 193°
2026-04-30 12:27 -8.00276 109.91275 13111 ft 354 kts 193°
2026-04-30 12:27 -8.02653 109.90637 12880 ft 352 kts 193°
2026-04-30 12:28 -8.05005 109.90009 12393 ft 347 kts 193°
2026-04-30 12:28 -8.07317 109.89396 11554 ft 342 kts 193°
2026-04-30 12:28 -8.09614 109.88789 10711 ft 341 kts 193°
2026-04-30 12:28 -8.11887 109.88191 10209 ft 328 kts 193°
2026-04-30 12:29 -8.14031 109.87763 9993 ft 302 kts 178°
2026-04-30 12:29 -8.15995 109.88139 9871 ft 291 kts 154°
2026-04-30 12:29 -8.17630 109.89289 9751 ft 287 kts 130°
2026-04-30 12:29 -8.18641 109.91005 9536 ft 286 kts 107°
2026-04-30 12:30 -8.19092 109.92951 9146 ft 284 kts 102°
2026-04-30 12:30 -8.19505 109.94898 8739 ft 282 kts 101°
2026-04-30 12:30 -8.19566 109.96854 8343 ft 281 kts 76°
2026-04-30 12:30 -8.18695 109.98599 7904 ft 283 kts 49°
2026-04-30 12:31 -8.17107 109.99698 7187 ft 283 kts 19°
2026-04-30 12:31 -8.15205 110.00157 6583 ft 278 kts 13°
2026-04-30 12:31 -8.13363 110.00450 6358 ft 258 kts
2026-04-30 12:31 -8.11592 110.00212 6235 ft 260 kts 343°
2026-04-30 12:32 -8.09949 109.99441 6046 ft 261 kts 329°
2026-04-30 12:32 -8.08398 109.98501 5749 ft 259 kts 329°
2026-04-30 12:32 -8.06853 109.97574 5429 ft 258 kts 330°
2026-04-30 12:32 -8.05314 109.96656 5111 ft 256 kts 329°
2026-04-30 12:33 -8.03777 109.95737 4691 ft 258 kts 329°
2026-04-30 12:33 -8.02249 109.94825 4230 ft 259 kts 329°
2026-04-30 12:33 -8.00704 109.93901 3805 ft 259 kts 330°
2026-04-30 12:33 -7.99166 109.92979 3381 ft 258 kts 330°
2026-04-30 12:34 -7.97623 109.92055 3031 ft 256 kts 330°
2026-04-30 12:34 -7.96109 109.91149 2770 ft 249 kts 330°
2026-04-30 12:34 -7.94648 109.90275 2635 ft 238 kts 330°
2026-04-30 12:34 -7.93207 109.89546 2515 ft 225 kts 345°
2026-04-30 12:35 -7.91715 109.89183 2357 ft 217 kts 348°
2026-04-30 12:35 -7.90294 109.88881 2220 ft 206 kts 356°
2026-04-30 12:35 -7.88924 109.89010 2040 ft 193 kts 18°
2026-04-30 12:35 -7.87755 109.89559 1894 ft 179 kts 37°
2026-04-30 12:36 -7.86891 109.90375 1779 ft 163 kts 53°
2026-04-30 12:36 -7.86355 109.91298 1698 ft 143 kts 70°
2026-04-30 12:36 -7.86098 109.92240 1640 ft 139 kts 83°
2026-04-30 12:36 -7.86078 109.93205 1556 ft 138 kts 97°
2026-04-30 12:37 -7.86302 109.94144 1540 ft 138 kts 111°
2026-04-30 12:37 -7.86634 109.95047 1540 ft 136 kts 110°
2026-04-30 12:37 -7.86961 109.95943 1537 ft 136 kts 110°
2026-04-30 12:37 -7.87285 109.96831 1445 ft 137 kts 110°
2026-04-30 12:38 -7.87618 109.97743 1304 ft 139 kts 110°
2026-04-30 12:38 -7.87949 109.98651 1154 ft 139 kts 111°
2026-04-30 12:38 -7.88284 109.99567 988 ft 138 kts 110°
2026-04-30 12:38 -7.88617 110.00477 826 ft 140 kts 109°
2026-04-30 12:39 -7.88953 110.01401 655 ft 140 kts 109°
2026-04-30 12:39 -7.89293 110.02328 494 ft 141 kts 109°
2026-04-30 12:39 -7.89632 110.03263 316 ft 142 kts 108°
2026-04-30 12:39 -7.89964 110.04181 155 ft 141 kts 109°
2026-04-30 12:40 -7.90303 110.05087 37 ft 127 kts 108°
2026-04-30 12:40 -7.90526 110.05715 45 ft 64 kts 113°
2026-04-30 12:40 -7.90627 110.06002 43 ft 31 kts 107°
2026-04-30 12:40 -7.90665 110.06155 41 ft 14 kts 85°
2026-04-30 12:41 -7.90660 110.06210 42 ft 11 kts 85°
2026-04-30 12:41 -7.90649 110.06314 43 ft 16 kts 72°
2026-04-30 12:41 -7.90565 110.06312 42 ft 17 kts 294°
2026-04-30 12:41 -7.90521 110.06191 41 ft 20 kts 290°
2026-04-30 12:42 -7.90472 110.06054 41 ft 22 kts 289°
2026-04-30 12:42 -7.90414 110.05899 44 ft 25 kts 290°
2026-04-30 12:42 -7.90372 110.05785 45 ft 15 kts 294°
2026-04-30 12:42 -7.90272 110.05771 40 ft 16 kts 14°
2026-04-30 12:43 -7.90209 110.05833 38 ft 14 kts 93°
2026-04-30 12:43 -7.90229 110.05916 37 ft 9 kts 71°
2026-04-30 12:43 -7.90175 110.05942 38 ft 8 kts 20°
2026-04-30 12:43 -7.90135 110.05957 38 ft 4 kts 20°